Regional Weather Roundup
Issued by NWS

Home | Current Version | Previous Version | Graphics & Text | Print | Product List | Glossary On
Versions: 1 2 3 4 5 6 7 8 9 10 11 12 13 14 15 16 17 18 19 20 21 22 23 24 25 26 27 28 29 30 31 32 33 34 35 36 37 38 39 40 41 42 43 44 45 46 47 48 49 50
000
ASUS43 KLSX 050007
RWRMO

WEATHER SUMMARY FOR MISSOURI
NATIONAL WEATHER SERVICE SPRINGFIELD MO
700 PM CDT FRI SEP 04 2015

NOTE: "FAIR" INDICATES FEW OR NO CLOUDS BELOW 12,000 FEET WITH NO
       SIGNIFICANT WEATHER AND/OR OBSTRUCTIONS TO VISIBILITY.
       CURRENT SKY AND/OR WEATHER CONDITIONS ARE NOT AVAILABLE FOR
       CHILLICOTHE AND FARMINGTON.

MOZ001>031-035>038-043-044-053-054-050100-
...NORTHERN AND WESTERN MISSOURI...

CITY           SKY/WX    TMP DP  RH WIND       PRES   REMARKS
KANSAS CTY INT FAIR      86  67  52 S10       29.94S
6HR MIN TEMP:  86; 6HR MAX TEMP:  93;

KANSAS C DTWN  FAIR      89  66  46 S13       29.93R HX  91
6HR MIN TEMP:  89; 6HR MAX TEMP:  93;

LEE`S SUMMIT   FAIR      87  65  47 S9        29.96S
6HR MIN TEMP:  87; 6HR MAX TEMP:  91;

ST JOSEPH      FAIR      85  70  60 S8        29.92R
6HR MIN TEMP:  85; 6HR MAX TEMP:  91;

CHILLICOTHE      N/A     88  69  53 S3        29.95S HX  92
6HR MIN TEMP:  88; 6HR MAX TEMP:  94;

KIRKSVILLE     MOCLDY    85  70  60 S6        29.98R
6HR MIN TEMP:  85; 6HR MAX TEMP:  93;


$$
MOZ066>068-077>081-088>096-101>105-050100-
...SOUTHWEST MISSOURI...

CITY           SKY/WX    TMP DP  RH WIND       PRES   REMARKS
SPRINGFIELD    FAIR      86  68  54 S7        30.00R
6HR MIN TEMP:  86; 6HR MAX TEMP:  90;

JOPLIN         FAIR      85  71  63 S5        29.97S HX  90
6HR MIN TEMP:  85; 6HR MAX TEMP:  90;


$$
MOZ032>034-039>042-045>050-055>058-069>072-050100-
...CENTRAL MISSOURI...

CITY           SKY/WX    TMP DP  RH WIND       PRES   REMARKS
COLUMBIA       FAIR      86  73  65 SE5       29.99R HX  93
6HR MIN TEMP:  86; 6HR MAX TEMP:  92;

JEFFERSON CITY MOCLDY    90  69  50 S6        29.97R HX  94
6HR MIN TEMP:  89; 6HR MAX TEMP:  94;

ROLLA          FAIR      85  69  58 SE6       30.00S
6HR MIN TEMP:  85; 6HR MAX TEMP:  92;

SEDALIA        FAIR      88  68  51 S7        29.99R HX  91
6HR MIN TEMP:  88; 6HR MAX TEMP:  94;

WHITEMAN AFB   FAIR      88  69  53 SW7       29.96R HX  92
WARRENSBURG    FAIR      86  66  51 S5        29.96R
OSAGE BEACH    FAIR      86  66  51 SE3       30.00R

$$
MOZ051-052-059>065-050100-
...EAST CENTRAL MISSOURI...

CITY           SKY/WX    TMP DP  RH WIND       PRES   REMARKS
ST LOUIS INTL  FAIR      90  67  46 SW5       29.99S HX  93
6HR MIN TEMP:  90; 6HR MAX TEMP:  96;

SPIRIT OF STL  FAIR      82  75  79 CALM      29.97S
6HR MIN TEMP:  82; 6HR MAX TEMP:  93;

ST CHARLES     FAIR      89  70  53 CALM      29.97S HX  94
6HR MIN TEMP:  89; 6HR MAX TEMP:  94;


$$
MOZ072>076-082>087-097>100-106>115-050100-
...SOUTH CENTRAL AND SOUTHEAST MISSOURI...

CITY           SKY/WX    TMP DP  RH WIND       PRES   REMARKS
CAPE GIRARDEAU FAIR      84  72  67 E5        29.98S
6HR MIN TEMP:  84; 6HR MAX TEMP:  93;

FARMINGTON     FAIR      84  73  70 SE3       30.04S HX  91
6HR MIN TEMP:  84; 6HR MAX TEMP:  90;

POPLAR BLUFF   FAIR      84  75  74 CALM      29.97F HX  92
6HR MIN TEMP:  84; 6HR MAX TEMP:  93;

WEST PLAINS    FAIR      84  69  60 E3        30.03S
6HR MIN TEMP:  84; 6HR MAX TEMP:  89;


$$



USA.gov is the U.S. government's official web portal to all federal, state and local government web resources and services.